Stations météo

réclame
Mon MeteoGroup
Biarritz, France (7602): Température de l'air & dewpoint: 17.10.2018 12:00:00 - 23.10.2018 12:00:00 (CEST)Biarritz, France (7602): Température de l'air 5cm: 17.10.2018 12:00:00 - 23.10.2018 12:00:00 (CEST)Biarritz, France (7602): Température de l'air -20cm & Température de l'air -100cm: 17.10.2018 12:00:00 - 23.10.2018 12:00:00 (CEST)Biarritz, France (7602): Vitesse du vent & gusts: 17.10.2018 12:00:00 - 23.10.2018 12:00:00 (CEST)Biarritz, France (7602): Direction du vent: 17.10.2018 12:00:00 - 23.10.2018 12:00:00 (CEST)Biarritz, France (7602): reduced air pressure: 17.10.2018 12:00:00 - 23.10.2018 12:00:00 (CEST)Biarritz, France (7602): visibility: 17.10.2018 12:00:00 - 23.10.2018 12:00:00 (CEST)Biarritz, France (7602): Ensoleillement: 17.10.2018 12:00:00 - 23.10.2018 12:00:00 (CEST)Biarritz, France (7602): Quantités de précipitations: 17.10.2018 12:00:00 - 23.10.2018 12:00:00 (CEST)
Date & Time tt [°C] td [°C] tt 5cm [°C] tt -20cm [°C] tt -100cm [°C] ff [km/h] ff [knt] fx [km/h] fx [knt] dd ppp [hPa] vv [km] sd [min] rr [mm]
23.10.2018 12:00:00 - - - - - - - - - - - - - -
23.10.2018 11:00:00 13,7 11,0 15,5 16,1 18,6 3 1 6 3 ENE 1031,2 12 60 0,0
23.10.2018 10:00:00 11,4 10,5 8,8 16,2 18,6 2 1 5 3 ESE 1031,2 8 60 0,0
23.10.2018 09:00:00 9,2 8,6 6,5 16,3 18,6 0 0 11 6 N 1030,5 4,7 9 0,0
23.10.2018 08:00:00 9,6 8,8 5,0 16,4 18,6 3 2 6 4 NE 1029,7 7 0 0,2
23.10.2018 07:00:00 10,4 9,3 9,0 16,6 18,6 7 4 10 5 ENE 1029,5 10 0 0,0
23.10.2018 06:00:00 10,5 9,9 8,6 16,7 18,6 6 4 11 6 ENE 1029,8 12 0 0,0
23.10.2018 05:00:00 10,5 9,9 8,0 16,8 18,6 5 3 10 6 E 1029,8 13 0 0,0
23.10.2018 04:00:00 10,5 9,7 6,2 17,0 18,6 3 2 19 10 E 1029,6 12 0 0,0
23.10.2018 03:00:00 10,1 9,3 6,0 17,1 18,6 8 4 9 5 S 1029,3 14 0 0,0
23.10.2018 02:00:00 10,7 9,8 6,9 17,3 18,6 5 3 8 4 S 1029,5 15 0 0,0
23.10.2018 01:00:00 11,4 10,1 9,8 17,4 18,6 6 3 10 6 S 1029,9 12 0 0,0
23.10.2018 00:00:00 12,2 10,8 10,9 17,5 18,6 7 4 13 7 SW 1029,9 16 0 0,0
22.10.2018 23:00:00 12,4 10,6 10,8 17,7 18,6 8 4 13 7 SW 1029,8 18 0 0,0
22.10.2018 22:00:00 12,7 10,8 11,4 17,8 18,6 7 4 15 8 SW 1029,4 18 0 0,0
22.10.2018 21:00:00 12,5 10,6 11,3 17,9 18,6 10 5 16 9 SW 1029,0 20 0 0,0
22.10.2018 20:00:00 14,3 11,4 12,1 18,0 18,6 8 4 14 7 SSW 1028,7 22 0 0,0
22.10.2018 19:00:00 14,5 10,9 13,4 18,1 18,6 7 4 19 10 WSW 1028,0 25 33 0,0
22.10.2018 18:00:00 15,9 10,9 17,9 18,0 18,6 10 6 24 13 W 1027,6 25 60 0,0
22.10.2018 17:00:00 16,1 10,6 19,6 18,0 18,6 16 8 27 15 WNW 1027,3 21 60 0,0
22.10.2018 16:00:00 16,4 10,9 19,8 17,9 18,6 19 10 31 17 WNW 1026,8 32 60 0,0
22.10.2018 15:00:00 16,4 11,1 20,0 17,8 18,6 18 10 28 15 WNW 1026,8 20 60 0,0
22.10.2018 14:00:00 16,1 11,3 19,9 17,7 18,6 16 9 26 14 WNW 1027,0 19 60 0,0
22.10.2018 13:00:00 16,2 11,8 18,5 17,7 18,6 14 8 25 13 NNW 1027,2 20 51 0,0
22.10.2018 12:00:00 15,7 11,9 17,8 17,6 18,6 10 6 23 12 NNW 1026,8 19 38 0,0
22.10.2018 11:00:00 15,9 12,6 16,5 17,6 18,6 13 7 22 12 NNW 1026,6 13 19 0,0
22.10.2018 10:00:00 15,9 13,7 14,6 17,7 18,6 13 7 23 12 WNW 1025,8 16 40 0,0
22.10.2018 09:00:00 15,1 14,0 14,2 17,8 18,6 10 5 20 11 WNW 1025,2 10 1 0,0
22.10.2018 08:00:00 16,2 14,9 15,2 17,8 18,6 11 6 22 12 W 1024,7 9 0 0,0
22.10.2018 07:00:00 15,7 14,6 14,9 17,9 18,6 8 4 14 7 WSW 1024,4 8 0 0,0
22.10.2018 06:00:00 15,5 14,2 14,4 18,0 18,6 6 4 16 9 SSW 1024,2 8 0 0,0
22.10.2018 05:00:00 15,2 14,4 12,1 18,1 18,6 6 3 16 9 WSW 1024,2 8 0 0,0
22.10.2018 04:00:00 14,4 13,8 13,1 18,1 18,6 13 7 23 12 WNW 1024,2 9 0 0,0
22.10.2018 03:00:00 14,6 14,4 14,2 18,2 18,6 13 7 18 10 WNW 1024,1 6 0 0,0
22.10.2018 02:00:00 14,6 14,4 14,1 18,3 18,6 8 5 19 11 W 1024,1 4,2 0 0,0
22.10.2018 01:00:00 14,3 14,1 14,0 18,4 18,6 9 5 17 9 W 1024,1 0,9 0 0,0
22.10.2018 00:00:00 14,3 14,1 14,0 18,4 18,6 8 5 13 7 W 1023,9 0,4 0 0,0
21.10.2018 23:00:00 14,3 14,1 14,0 18,5 18,6 7 4 16 9 WNW 1023,7 0,2 0 0,0
21.10.2018 22:00:00 14,3 14,1 14,2 18,6 18,6 7 4 16 9 NW 1023,3 0,2 0 0,0
21.10.2018 21:00:00 14,5 14,2 14,4 18,6 18,6 8 5 14 8 NW 1023,1 0,1 0 0,0
21.10.2018 20:00:00 14,6 14,3 14,4 18,7 18,6 8 4 13 7 WNW 1022,7 0,1 0 0,0
21.10.2018 19:00:00 14,7 14,2 14,6 18,7 18,6 8 5 16 9 NW 1022,2 0,1 0 0,0
21.10.2018 18:00:00 15,8 15,2 16,3 18,5 18,6 10 5 20 11 NW 1022,0 0,2 0 0,0
21.10.2018 17:00:00 17,5 15,5 19,6 18,3 18,6 13 7 16 9 NNW 1021,9 2,5 55 0,0
21.10.2018 16:00:00 20,9 15,9 24,9 18,1 18,6 9 5 15 8 NE 1022,1 16 60 0,0
21.10.2018 15:00:00 19,7 16,5 23,8 17,9 18,6 9 5 14 7 NE 1022,6 13 60 0,0
21.10.2018 14:00:00 17,7 17,1 18,3 17,7 18,6 4 2 10 5 NE 1023,3 8 26 0,0
21.10.2018 13:00:00 15,5 15,3 17,1 17,6 18,6 4 2 8 4 NE 1024,0 3,5 0 0,0
21.10.2018 12:00:00 15,1 14,9 15,8 17,5 18,6 3 1 6 4 SSE 1024,3 0,2 0 0,0
21.10.2018 11:00:00 14,4 14,2 14,4 17,5 18,6 2 1 7 4 E 1024,3 0,1 0 0,0
21.10.2018 10:00:00 14,0 13,8 13,8 17,5 18,6 4 2 6 3 S 1024,4 0,1 0 0,2
21.10.2018 09:00:00 13,9 13,7 13,7 17,5 18,6 3 2 6 4 ESE 1024,1 0,1 0 0,0
21.10.2018 08:00:00 14,2 14,0 14,0 17,6 18,6 4 2 6 4 NE 1023,8 0,1 0 0,0
21.10.2018 07:00:00 14,4 14,2 13,8 17,6 18,6 0 0 3 2 N 1024,0 0,1 0 0,0
21.10.2018 06:00:00 13,9 13,7 13,0 17,7 18,6 2 1 8 4 S 1024,1 0,1 0 0,0
21.10.2018 05:00:00 13,2 13,0 9,7 17,8 18,6 5 3 8 4 S 1024,5 0,1 0 0,0
21.10.2018 04:00:00 13,0 12,7 9,8 17,9 18,6 4 2 5 3 NE 1024,5 0,1 0 0,0
21.10.2018 03:00:00 13,3 13,0 11,3 18,0 18,6 0 0 4 2 N 1024,4 0,1 0 0,2
21.10.2018 02:00:00 14,1 13,8 13,0 18,0 18,6 2 1 9 5 SSE 1024,8 0,1 0 0,0
21.10.2018 01:00:00 14,8 14,3 14,4 18,1 18,6 5 3 11 6 S 1025,1 0,1 0 0,0
21.10.2018 00:00:00 15,3 14,8 14,9 18,1 18,6 3 2 8 4 E 1025,6 0,8 0 0,0
20.10.2018 23:00:00 15,6 15,0 14,5 18,2 18,6 3 2 7 4 SE 1025,6 2,4 0 0,0
20.10.2018 22:00:00 16,0 15,2 14,5 18,3 18,7 4 2 13 7 N 1025,3 3,5 0 0,0
20.10.2018 21:00:00 16,1 15,0 12,1 18,3 18,6 8 5 11 6 N 1025,2 6 0 0,0
20.10.2018 20:00:00 15,9 14,6 12,1 18,3 18,6 4 2 8 5 WNW 1024,5 6 0 0,0
20.10.2018 19:00:00 17,0 14,8 15,9 18,3 18,6 5 3 8 4 WSW 1024,1 8 13 0,0
20.10.2018 18:00:00 18,7 15,4 20,2 18,2 18,6 4 2 13 7 W 1024,2 11 42 0,0
20.10.2018 17:00:00 19,2 15,9 19,5 18,1 18,6 6 3 15 8 W 1024,2 9 26 0,0
20.10.2018 16:00:00 17,9 15,5 19,9 18,0 18,6 10 5 20 11 NNW 1024,6 8 14 0,0
20.10.2018 15:00:00 18,8 15,7 19,7 17,8 18,6 12 7 22 12 W 1024,6 10 20 0,0
20.10.2018 14:00:00 18,3 16,1 19,6 17,8 18,6 14 8 20 11 WNW 1025,1 8 5 0,0
20.10.2018 13:00:00 18,0 15,4 18,6 17,7 18,6 8 4 19 11 WSW 1025,5 9 0 0,0
20.10.2018 12:00:00 17,5 15,3 18,1 17,7 18,6 9 5 18 10 WSW 1025,4 9 0 0,0
20.10.2018 11:00:00 17,3 15,3 17,1 17,7 18,6 8 4 16 8 WSW 1025,1 8 0 0,0
20.10.2018 10:00:00 16,8 14,8 15,7 17,7 18,6 6 3 13 7 WSW 1024,3 9 0 0,0
20.10.2018 09:00:00 15,7 14,2 15,1 17,7 18,6 5 3 10 5 WSW 1023,6 9 0 0,0
20.10.2018 08:00:00 15,6 14,1 15,2 17,8 18,6 5 3 13 7 SW 1022,9 8 0 0,0
20.10.2018 07:00:00 16,2 14,6 15,7 17,8 18,6 9 5 17 9 WSW 1022,5 9 0 0,0
20.10.2018 06:00:00 16,1 14,5 15,7 17,8 18,6 6 3 14 7 WSW 1022,6 5 0 0,0
20.10.2018 05:00:00 16,1 15,0 15,8 17,9 18,6 8 4 21 11 WSW 1022,0 4,7 0 0,0
20.10.2018 04:00:00 16,0 15,0 15,4 18,0 18,6 6 3 16 9 WSW 1021,9 7 0 0,0
20.10.2018 03:00:00 16,0 15,4 15,2 18,0 18,6 8 4 19 11 WSW 1021,9 5 0 0,0
20.10.2018 02:00:00 15,7 15,1 15,2 18,1 18,6 5 3 13 7 SSW 1021,8 4,0 0 0,0
20.10.2018 01:00:00 15,6 15,0 14,2 18,2 18,6 5 3 9 5 SW 1021,8 4,1 0 0,0
20.10.2018 00:00:00 15,4 14,6 14,2 18,3 18,6 6 4 14 8 WSW 1021,9 4,9 0 0,0
19.10.2018 23:00:00 15,6 14,6 14,3 18,4 18,6 9 5 16 9 W 1021,9 7 0 0,0
19.10.2018 22:00:00 15,6 14,5 14,5 18,5 18,6 9 5 15 8 W 1021,6 7 0 0,0
19.10.2018 21:00:00 15,7 14,6 14,6 18,6 18,6 9 5 17 9 W 1021,0 9 0 0,0
19.10.2018 20:00:00 15,8 14,7 14,8 18,6 18,6 7 4 16 8 W 1020,4 6 0 0,0
19.10.2018 19:00:00 16,5 14,9 16,2 18,6 18,6 9 5 19 10 WNW 1019,6 9 0 0,0
19.10.2018 18:00:00 17,3 15,8 17,8 18,5 18,6 16 9 23 12 NW 1019,3 8 12 0,0
19.10.2018 17:00:00 18,7 15,8 21,7 18,4 18,6 14 8 22 12 WNW 1019,0 11 60 0,0
19.10.2018 16:00:00 18,9 16,1 21,7 18,3 18,6 14 8 21 12 WNW 1018,9 10 56 0,0
19.10.2018 15:00:00 19,2 16,1 21,3 18,1 18,6 12 6 22 12 W 1018,8 12 40 0,0
19.10.2018 14:00:00 18,7 16,5 20,9 18,0 18,6 16 9 23 12 W 1019,2 12 18 0,0
19.10.2018 13:00:00 19,3 16,0 19,7 17,8 18,6 10 5 16 9 W 1019,5 9 34 0,0
19.10.2018 12:00:00 18,6 16,6 19,4 17,8 18,6 6 3 16 8 WSW 1019,2 12 14 0,0
19.10.2018 11:00:00 17,5 16,9 17,6 17,7 18,6 3 2 8 5 WSW 1019,1 9 2 0,0
19.10.2018 10:00:00 16,7 16,4 16,3 17,8 18,6 4 2 8 4 W 1018,4 3,8 20 0,0
19.10.2018 09:00:00 16,2 15,9 15,4 17,8 18,6 3 2 8 4 S 1017,6 2,4 8 0,0
19.10.2018 08:00:00 16,1 15,8 15,7 17,8 18,7 3 1 6 4 S 1017,3 2,6 0 0,0
19.10.2018 07:00:00 16,4 16,1 16,2 17,8 18,6 4 2 8 5 NW 1017,3 1,9 0 0,0
19.10.2018 06:00:00 16,5 16,2 16,2 17,8 18,6 5 3 12 7 NW 1017,7 4,0 0 0,0
19.10.2018 05:00:00 16,4 16,1 16,2 17,9 18,6 5 3 10 6 WNW 1017,3 3,6 0 0,0
19.10.2018 04:00:00 16,4 16,1 15,4 17,9 18,7 4 2 9 5 NNW 1017,1 3,0 0 0,0
19.10.2018 03:00:00 16,4 16,1 15,4 17,9 18,6 8 4 14 7 WNW 1016,9 3,5 0 0,0
19.10.2018 02:00:00 16,2 15,7 15,4 18,0 18,7 9 5 13 7 WNW 1016,9 2,7 0 0,0
19.10.2018 01:00:00 16,6 16,1 16,2 18,0 18,6 6 3 13 7 W 1017,0 3,5 0 0,0
19.10.2018 00:00:00 16,5 16,0 16,1 18,0 18,7 10 6 15 8 W 1016,8 3,7 0 0,0
18.10.2018 23:00:00 16,6 16,1 16,1 18,1 18,7 6 4 12 7 W 1016,8 3,0 0 0,0
18.10.2018 22:00:00 16,5 15,9 16,1 18,1 18,7 3 2 8 4 SW 1016,5 3,0 0 0,0
18.10.2018 21:00:00 16,6 16,0 15,7 18,1 18,7 4 2 8 4 WSW 1016,4 3,5 0 0,0
18.10.2018 20:00:00 16,9 15,9 16,5 18,1 18,7 6 3 11 6 W 1016,0 6 0 0,0
18.10.2018 19:00:00 17,0 16,0 17,0 18,1 18,7 5 3 13 7 NW 1015,5 6 0 0,0
18.10.2018 18:00:00 17,2 15,9 17,3 18,0 18,7 9 5 16 9 WNW 1015,2 7 0 0,0
18.10.2018 17:00:00 17,6 15,9 18,7 17,8 18,7 12 6 20 11 WNW 1015,2 8 0 0,0
18.10.2018 16:00:00 18,0 16,0 19,6 17,7 18,7 12 7 19 10 WNW 1015,1 9 21 0,0
18.10.2018 15:00:00 18,0 15,6 19,9 17,4 18,7 9 5 15 8 NW 1015,4 8 5 0,0
18.10.2018 14:00:00 18,7 15,2 20,9 17,2 18,7 5 3 12 7 NNE 1015,5 13 43 0,0
18.10.2018 13:00:00 17,9 15,3 19,2 17,0 18,7 2 1 10 6 NNW 1016,0 14 18 0,0
18.10.2018 12:00:00 16,2 15,1 17,4 17,0 18,7 5 3 10 5 NE 1016,3 8 0 0,0
18.10.2018 11:00:00 15,2 14,7 15,2 17,0 18,7 2 1 9 5 NE 1016,2 6 0 0,0
18.10.2018 10:00:00 14,8 14,5 13,9 17,0 18,7 0 0 4 2 N 1016,1 5 0 0,0
18.10.2018 09:00:00 13,7 13,4 12,7 17,1 18,7 2 1 6 3 WSW 1015,6 10 0 0,0
18.10.2018 08:00:00 13,2 12,9 11,5 17,1 18,7 4 2 6 4 S 1015,1 11 0 0,0
18.10.2018 07:00:00 12,6 12,3 11,6 17,2 18,7 4 2 10 5 S 1015,1 11 0 0,0
18.10.2018 06:00:00 12,3 12,0 11,2 17,3 18,7 4 2 8 5 SSE 1015,0 12 0 0,0
18.10.2018 05:00:00 12,2 11,9 9,0 17,4 18,7 3 2 6 3 S 1014,8 6 0 0,0
18.10.2018 04:00:00 11,7 11,2 8,1 17,5 18,7 5 3 8 5 SSE 1015,1 6 0 0,0
18.10.2018 03:00:00 11,8 11,3 9,8 17,7 18,7 8 4 10 5 SSE 1015,4 6 0 0,0
18.10.2018 02:00:00 13,0 12,4 9,7 17,8 18,7 5 3 8 4 SE 1015,4 6 0 0,0
18.10.2018 01:00:00 13,7 12,8 12,3 17,9 18,7 4 2 10 5 ENE 1015,4 8 0 0,0
18.10.2018 00:00:00 14,5 13,2 11,8 18,0 18,7 7 4 9 5 NE 1015,3 25 0 0,0
17.10.2018 23:00:00 13,9 12,5 11,8 18,2 18,7 8 4 11 6 ENE 1015,3 31 0 0,0
17.10.2018 22:00:00 15,1 13,0 12,7 18,3 18,7 5 3 14 7 ENE 1014,8 40 0 0,0
17.10.2018 21:00:00 16,2 12,9 15,0 18,3 18,7 8 5 15 8 ENE 1014,8 56 0 0,0
17.10.2018 20:00:00 16,6 12,9 15,5 18,4 18,7 10 5 22 12 E 1014,5 60 0 0,0
17.10.2018 19:00:00 18,6 14,3 18,2 18,3 18,7 12 6 21 12 ENE 1014,0 54 54 0,0
17.10.2018 18:00:00 19,3 15,6 21,7 18,3 18,7 11 6 18 10 ENE 1014,0 15 57 0,0
17.10.2018 17:00:00 19,8 15,2 20,6 18,1 18,7 10 5 23 12 ENE 1014,6 17 51 0,0
17.10.2018 16:00:00 19,2 14,9 23,1 17,9 18,7 11 6 21 11 NE 1014,9 19 56 0,0
17.10.2018 15:00:00 17,9 14,4 19,7 17,7 18,7 12 6 19 11 N 1015,7 18 23 0,0
17.10.2018 14:00:00 17,6 14,5 19,1 17,5 18,7 8 5 16 9 NNE 1016,4 16 0 0,0
17.10.2018 13:00:00 18,6 14,5 18,5 17,4 18,7 5 3 7 4 NE 1017,3 43 30 0,0
17.10.2018 12:00:00 16,8 15,1 17,1 17,4 18,8 3 2 6 4 WSW 1017,9 17 0 0,0

tt = Température de l'air
td = dewpoint
tt 5cm = Température de l'air 5cm
tt -20cm = Température de l'air -20cm
tt -100cm = Température de l'air -100cm
ff = Vitesse du vent
fx = gusts
dd = Direction du vent
ppp = reduced air pressure
vv = visibility
sd = Ensoleillement
rr = Quantités de précipitations

stations d'obs. à proximité